This is the latest recevied weather packets stored in our database for station/object NO3U. If no packets are shown the sender has not sent any weather packets the latest 10 day(s).
| Time | Temp. | Humidity | Pressure | Rain* | Wind** | Luminosity | Snow |
|---|---|---|---|---|---|---|---|
| 1777314784 | 22.78° C | 38% | 1020 hPa | 0 mm | - | 573 W/m² | - |
| 1777314481 | 22.22° C | 37% | 1020 hPa | 0 mm | - | 589 W/m² | - |
| 1777314177 | 22.22° C | 38% | 1020.3 hPa | 0 mm | - | 592 W/m² | - |
| 1777313876 | 22.22° C | 36% | 1020.2 hPa | 0 mm | - | 203 W/m² | - |
| 1777313573 | 22.22° C | 38% | 1020.5 hPa | 0 mm | - | 104 W/m² | - |
| 1777313271 | 22.22° C | 38% | 1020.4 hPa | 0 mm | - | 106 W/m² | - |
| 1777312966 | 22.22° C | 38% | 1020.5 hPa | 0 mm | - | 112 W/m² | - |
| 1777312663 | 22.22° C | 36% | 1020.6 hPa | 0 mm | - | 109 W/m² | - |
| 1777312360 | 21.67° C | 39% | 1020.7 hPa | 0 mm | - | 111 W/m² | - |
| 1777312058 | 21.11° C | 43% | 1020.7 hPa | 0 mm | - | 114 W/m² | - |
| 1777311754 | 21.67° C | 42% | 1020.8 hPa | 0 mm | - | 114 W/m² | - |
| 1777311451 | 21.11° C | 41% | 1020.9 hPa | 0 mm | - | 117 W/m² | - |
| 1777311148 | 21.11° C | 40% | 1021.1 hPa | 0 mm | - | 114 W/m² | - |
| 1777310847 | 21.11° C | 41% | 1021 hPa | 0 mm | - | 109 W/m² | - |
| 1777310543 | 20.56° C | 40% | 1021.3 hPa | 0 mm | - | 104 W/m² | - |
| 1777310241 | 21.11° C | 44% | 1021.1 hPa | 0 mm | - | 94 W/m² | - |
| 1777309938 | 20.56° C | 41% | 1021 hPa | 0 mm | - | 90 W/m² | - |
| 1777309636 | 20.56° C | 44% | 1021 hPa | 0 mm | - | 95 W/m² | - |
| 1777309332 | 20° C | 42% | 1021.2 hPa | 0 mm | - | 89 W/m² | - |
| 1777309031 | 20° C | 44% | 1021.6 hPa | 0 mm | - | 79 W/m² | - |
| 1777308727 | 20° C | 44% | 1021.3 hPa | 0 mm | - | 68 W/m² | - |
| 1777308422 | 20° C | 43% | 1021.3 hPa | 0 mm | - | 87 W/m² | - |
| 1777308118 | 19.44° C | 45% | 1021.4 hPa | 0 mm | - | 380 W/m² | - |
| 1777307815 | 19.44° C | 45% | 1021.4 hPa | 0 mm | - | 677 W/m² | - |
| 1777307513 | 18.89° C | 47% | 1021.5 hPa | 0 mm | - | 594 W/m² | - |
* Rain latest hour (hover to see other rain measurements)
** Current wind speed in m/s (hover to see current wind gust speed)